Flag for U.S.A. Weather past 2 weeks in Downey, California, U.S.A.

Now
86 °F

Sunny.


Feels Like: 83 °F
Forecast: 57 / 85 °F
Wind: 12 mph from Southwest

Location: Long Beach Airport

Current Time: Apr 27, 2015 at 3:54:05 PM

Latest Report: Apr 27, 2015 at 2:53 PM


Visibility: 10 mi

Pressure: 29.89 "Hg

Humidity: 12%

Dew point: 27 °F

Location of DowneyLocation

Historic Weather in Downey — Graph

°F

Downey temperature yesterday

Maximum temperature yesterday: 73 °F (at 3:53 PM)
Minimum temperature yesterday: 52 °F (at 3:53 AM)
Average temperature yesterday: 63 °F

Past Weeks' High & Low Weather Summary

 TemperatureHumidityPressure
High85 °F (Apr 27, 12:53 PM)90% (Apr 12, 11:53 PM)30.10 "Hg (Apr 12, 11:53 PM)
Low52 °F (Apr 26, 3:53 AM)7% (Apr 16, 11:53 AM)29.83 "Hg (Apr 20, 5:53 PM)
Average65 °F60%29.95 "Hg
* Reported Apr 12 1:53 PM — Apr 27 1:53 PM, Downey, Weather by CustomWeather, © 2015

Note: Actual official high and low records may vary slightly from our data, if they occured in-between our weather recording intervals... More about our weather records

Advertising

Downey weather history for previous 24 hours

 ConditionsComfort  
Time TempWeatherWind HumidityBarometerVisibility
1:53 PM
Mon, Apr 27
85 °FSunny.8 mph12%29.90 "Hg10 mi
12:53 PM85 °FSunny.9 mph13%29.91 "Hg10 mi
11:53 AM84 °FSunny.5 mph15%29.93 "Hg10 mi
10:53 AM77 °FSunny.9 mph40%29.94 "Hg10 mi
9:53 AM77 °FSunny.No wind29%29.95 "Hg10 mi
8:53 AM68 °FSunny.No wind57%29.95 "Hg9 mi
7:53 AM63 °FSunny.No wind68%29.95 "Hg10 mi
6:53 AM58 °FClear.No wind78%29.92 "Hg10 mi
5:53 AM56 °FClear.No wind81%29.91 "Hg10 mi
4:53 AM57 °FClear.No wind78%29.91 "Hg10 mi
3:53 AM58 °FClear.5 mph78%29.91 "Hg10 mi
2:53 AM57 °FClear.No wind81%29.91 "Hg10 mi
1:53 AM60 °FClear.No wind75%29.92 "Hg10 mi
12:53 AM60 °FClear.3 mph75%29.93 "Hg10 mi
11:53 PM
Sun, Apr 26
61 °FClear.5 mph75%29.93 "Hg10 mi
10:53 PM62 °FClear.7 mph73%29.93 "Hg10 mi
9:53 PM62 °FClear.7 mph73%29.92 "Hg10 mi
8:53 PM65 °FClear.5 mph59%29.90 "Hg10 mi
7:53 PM67 °FSunny.6 mph49%29.89 "Hg10 mi
6:53 PM68 °FSunny.8 mph47%29.88 "Hg10 mi
5:53 PM71 °FSunny.8 mph36%29.89 "Hg10 mi
4:53 PM72 °FSunny.13 mph34%29.90 "Hg10 mi
3:53 PM73 °FSunny.14 mph33%29.93 "Hg10 mi
Weather by CustomWeather, © 2015

See weather overviewHow to use our weather pages